ORBCOMM FM06

Last updated on Wed Aug 19 2026 00:03:10 GMT+0000 (Coordinated Universal Time)

1 25118U 97084G 26230.06027034 .00000789 00000+0 25098-3 0 9990 2 25118 45.0134 114.8198 0000713 337.3517 162.5843 14.47688660503353
UTC large
Height (km)
Speed (km/s)
/
Latitude / Longitude
Inclination (degrees)
Orbital Period (minutes)
Azimuth
Elevation
Range (km)
Doppler Factor

Next 0 passes for location: London (51.5072 / 0.1276)

No passes found over London.
ORBCOMM FM06